{"data":{"norad_id":61562,"epoch":"2026-05-25T02:49:01.385760Z","epoch_age_seconds":68922,"freshness":"FRESH","line1":"1 61562U 24185L   26145.11737715  .00000088  00000+0  11785-3 0  9990","line2":"2 61562  88.9812  64.4111 0008211 306.5296  53.5099 13.51069821 89855","mean_motion":13.51069821,"eccentricity":0.0008211,"inclination_deg":88.9812,"raan_deg":64.4111,"arg_perigee_deg":306.5296,"mean_anomaly_deg":53.5099,"bstar":0.00011785,"rev_number":8985,"period_min":106.58220453286,"perigee_km":1062.2107371957,"apogee_km":1074.4393171367,"semimajor_km":7446.4620271662,"source":"CELESTRAK","updated_at":"2026-05-25T13:38:02.415382Z"}}